SCOUT X-4 R/B, 907

Orbit data source: Space-Track

SCOUT X-4 R/B, 907 is space debris in LEO originally from a launch on Sat, 10 Oct 1964 UTC launched from the Air Force Western Test Range (AFWTR). Debris objects in space refer to the collection of defunct objects orbiting the Earth. Examples of debris include non-operational satellites, rocket bodies, and fragments generated from explosions, collisions, or faulty payload assembly.

Loading next visibility...
Identifier
907, 1964-064B
Orbit
LEO
Country
Flag of USUS
Related business
Manufacturer
ABL
Mission
Spacecraft
Bus & Motor
ALTAIR, Unknown motor
Mass
33 kg wet, 33 kg dry
Launch date (UTC)
1964-10-10 (62 years ago)
Launch vehicle
Unknown
Launch site
Air Force Western Test Range (AFWTR)
Object type
Payload
Rocket body
Debris
Shape & HBR
Unknown
Radar Cross Section
Medium (>0.1 m² and <1 m²)

Expand to show TLE details & history
Last TLE update: 8 hours ago

TLE from 8 hours ago
0 SCOUT X-4 R/B
1 00907U 64064B   26104.29935118  .00000087  00000-0  71221-4 0  9999
2 00907  79.6911 239.0321 0121202 105.6676 255.7885 13.80930657 93824
Epoch: 2026-04-14T07:11Z
TLE epoch observation values (Epoch: 2026-04-14T07:11:03.941Z)
Latitude
-0.00002°
Longitude
-71.21192°
Altitude
986.244 km
Speed
7.347 km/s
True Right ascension
15h 56m 07s
True Declination
0° 00' 00"
Sunlit
Object was in full shadow at epoch
Visualization orbit readout
Latitude
Unknown
Longitude
Unknown
Altitude
Unknown
Speed
Unknown
Apparent Right ascension
Unknown
Apparent Declination
Unknown
Sunlit
N/A
Visualization observer readout
Local Sidereal Time
21:52:07
Azimuth
Unknown
Elevation
Unknown
Doppler factor
Unknown
Orbital elements
Apogee altitude
1,046.794 km
Perigee altitude
868.966 km
Semi-major axis
7,336.017 km
Eccentricity
0.01212
Inclination
79.6911°
RAAN
239.0321°
Arg. of periapsis
105.6676°
True anomaly
254.44724°
Mean anomaly
255.7885°
Eccentric anomaly
255.11736°
Mean motion
3.45424 °/min
Orbital period
104.22 mins
BSTAR
0.000071221
Loading maneuver chart data...
Computing Atmospheric mass density...
Loading historical data...
Loading historical data...
Loading historical data...
Loading historical data...
Loading historical data...
Loading historical data...
Loading historical data...
Other satellites on launch #64 in the year 1964 (1964-10-10 UTC)

Documentation

Showing up to 5 results
|